Wind_Speed
15 15 15 14 14 14 13 13 12 12 11 11 11 11 11 10 10 10 9 9 9 8 8 7 6 6 5 5 5 4 4 3 2 2 1 1 1 2 2 2 3 3 4
17 17 16 16 15 15 15 14 14 13 12 12 12 12 12 11 11 11 10 10 10 9 9 8 7 7 6 6 5 5 5 4 4 3 2 2 2 2 2 3 3 4 4
19 19 18 18 17 17 16 16 15 15 14 13 13 13 13 12 12 12 11 11 11 10 10 10 9 8 7 7 6 6 6 5 5 4 4 3 3 3 3 4 4 4 4
21 21 20 19 19 18 18 17 17 16 16 15 15 14 14 14 13 13 12 12 12 12 11 11 10 9 9 8 8 7 7 7 6 6 5 5 5 5 5 4 5 5 4
23 22 22 21 20 20 19 19 18 18 17 17 16 16 15 15 14 14 13 13 13 12 12 11 11 10 9 9 8 8 8 7 7 6 6 6 6 6 6 6 5 5 5
24 24 23 23 22 22 21 21 20 20 19 18 18 17 16 15 15 15 14 14 14 13 13 12 12 12 11 10 10 9 9 8 8 8 8 8 7 7 7 7 7 7 7
26 25 26 25 25 24 23 22 22 21 21 20 19 19 18 17 17 16 16 16 15 15 14 14 13 12 12 12 11 11 11 10 10 10 9 9 9 9 8 8 8 8 8
28 27 27 27 27 26 25 24 24 23 23 22 21 20 20 19 18 18 17 17 17 17 17 16 14 14 13 13 13 13 12 12 12 11 11 11 11 10 10 9 9 9 9
30 29 29 29 29 28 27 26 25 24 24 23 23 22 21 21 20 20 19 18 18 18 17 17 16 15 15 14 14 14 13 13 12 12 12 12 12 12 11 11 11 11 11
32 31 31 31 31 30 29 28 27 26 26 25 24 24 23 23 22 21 20 20 19 19 18 18 17 16 16 16 15 15 14 14 14 13 13 13 13 13 12 13 13 12 12
34 34 34 33 33 32 31 30 29 28 27 27 26 25 25 24 24 23 22 21 21 20 20 19 18 17 17 17 16 16 16 15 15 15 14 14 14 14 14 14 14 14 14
36 36 36 35 35 34 33 32 31 30 29 28 28 27 26 26 25 24 24 23 22 21 21 21 20 19 18 18 18 18 17 17 16 16 16 15 15 15 15 16 16 15 15
38 38 37 37 37 36 35 34 33 32 31 30 30 29 28 27 27 26 25 25 24 24 23 23 21 20 20 19 19 19 18 18 18 17 17 17 17 17 17 17 17 17 17
40 39 39 39 38 38 37 36 35 34 33 32 31 31 30 29 28 28 27 26 26 26 25 24 23 23 21 21 20 20 20 19 19 19 19 19 19 19 18 18 19 19 19
41 41 40 40 40 39 39 38 36 35 34 34 33 32 31 30 30 30 29 28 27 27 27 26 25 25 24 23 22 22 21 21 21 21 21 20 20 20 20 20 20 20 20
42 42 42 41 41 41 40 39 38 37 36 35 35 34 33 32 31 31 30 30 29 29 28 28 27 26 26 25 24 24 23 23 22 22 22 22 22 22 21 21 21 22 22
43 42 42 42 42 42 41 41 40 39 38 37 36 35 35 35 34 33 32 32 31 30 30 29 29 29 28 27 26 25 25 24 24 23 23 23 23 23 23 23 23 23 23
43 43 42 43 43 43 43 42 42 41 40 38 38 37 36 36 35 34 34 34 33 32 31 30 30 30 30 29 28 27 26 26 25 24 24 24 24 24 24 24 24 24 24
43 43 43 43 43 44 44 43 42 42 42 41 40 39 38 37 37 36 35 34 34 33 33 32 32 32 31 30 29 28 27 26 26 26 26 25 25 25 25 25 25 25 25
44 44 44 44 44 44 44 44 43 43 43 43 42 41 40 39 38 38 37 36 35 34 34 33 33 33 32 31 30 29 28 27 27 27 27 27 27 26 26 26 25 25 25
46 45 45 46 46 45 45 45 44 44 43 43 43 42 41 40 39 39 39 38 36 35 35 34 33 33 33 33 31 30 30 29 29 29 28 28 27 26 26 26 26 27 26
47 46 46 46 46 46 45 45 44 44 44 43 43 43 42 41 41 40 39 39 38 37 37 36 35 34 33 33 32 31 31 31 30 30 29 28 28 28 28 28 28 27 27
46 46 46 46 46 45 45 45 45 45 45 44 44 44 42 41 40 39 40 39 39 39 38 38 37 37 36 34 33 32 32 32 31 30 30 29 29 29 29 29 29 28 28
46 46 46 47 46 46 45 45 46 45 45 45 44 44 43 42 42 41 41 41 40 40 39 39 39 38 37 36 36 34 33 33 32 31 31 31 30 30 30 30 30 30 30
46 46 46 47 47 47 47 47 46 46 46 46 45 45 44 44 44 44 43 43 42 41 41 41 40 39 39 38 38 37 35 35 34 34 33 33 32 32 32 31 31 31 31
46 47 47 47 48 48 48 48 48 46 46 46 46 46 45 45 44 44 44 44 44 43 43 42 41 41 41 40 39 38 38 37 36 36 36 35 34 34 33 33 33 32 32
Wind_Direction
227 226 225 223 222 221 221 221 223 226 227 228 228 227 226 225 226 226 224 224 225 226 228 230 231 232 232 234 233 231 233 238 248 258 275 297 319 336 348 351 345 349 350
230 229 228 226 225 225 224 224 227 229 230 230 229 228 228 227 227 227 228 228 229 230 231 233 235 237 239 241 240 240 242 245 251 260 268 279 293 313 322 325 329 336 338
233 233 231 229 229 229 228 227 228 230 231 232 231 230 230 231 231 229 230 231 231 232 233 235 237 240 242 243 242 243 246 250 254 261 267 275 285 297 305 311 316 321 324
235 235 234 232 231 230 230 229 229 231 232 233 235 235 234 234 234 233 232 233 234 234 234 235 238 240 242 244 246 248 252 255 256 259 265 272 279 287 293 299 305 309 311
236 235 235 233 232 231 231 231 231 232 232 233 235 237 236 236 235 236 236 236 236 236 236 236 238 240 243 247 249 252 256 257 258 260 266 272 278 283 285 289 296 301 302
236 236 235 234 233 233 233 233 233 233 233 234 235 236 236 238 238 238 237 237 237 237 238 238 240 242 246 248 250 252 255 258 260 263 268 272 276 279 281 283 286 290 294
236 235 235 235 235 234 233 233 233 234 234 234 235 236 238 240 242 241 237 238 240 240 242 243 243 246 248 250 252 253 255 257 261 264 267 269 272 274 275 279 282 284 288
235 234 235 235 235 235 235 234 234 234 234 234 235 237 239 241 242 242 240 239 241 244 246 246 244 247 249 251 254 254 255 257 260 263 265 267 270 271 271 275 279 281 284
236 236 236 236 235 235 235 234 234 235 235 235 237 238 240 242 242 241 241 243 243 246 247 246 246 248 250 251 253 254 256 258 260 263 265 266 268 270 271 273 276 278 280
236 236 236 236 236 236 235 235 235 236 236 236 238 239 241 243 243 242 242 244 246 247 248 248 249 250 251 251 252 254 257 259 261 262 264 265 268 270 273 274 274 276 278
237 236 236 236 236 236 236 236 236 237 238 238 239 240 242 243 244 245 245 246 248 248 247 248 249 250 250 252 253 254 256 259 261 261 262 265 268 270 272 275 276 277 279
238 237 237 236 236 236 237 237 238 238 239 239 240 240 241 243 244 245 247 248 248 249 249 250 251 250 251 252 253 255 257 259 261 262 263 265 268 271 273 275 277 278 279
238 238 238 237 236 236 237 238 238 239 240 240 241 241 242 243 244 245 247 248 249 249 249 249 250 250 252 253 254 256 258 259 260 261 263 265 267 271 273 275 277 278 278
238 238 237 237 236 235 236 237 238 239 240 240 241 242 242 242 244 244 246 247 248 249 249 249 249 251 252 253 254 257 258 259 260 262 263 264 267 270 272 274 276 277 278
238 237 236 236 237 236 235 236 237 238 239 240 241 241 241 242 243 244 245 247 248 248 248 249 249 250 251 252 254 256 258 259 261 263 263 264 266 269 272 274 275 277 278
237 237 236 236 236 236 236 235 236 238 239 240 240 241 241 241 242 244 244 246 247 248 249 250 249 250 251 253 255 255 257 259 261 262 263 264 265 267 270 273 275 277 278
237 236 236 236 236 237 237 236 236 237 239 240 241 241 242 242 242 243 245 245 246 247 248 250 250 250 251 254 255 256 256 258 260 262 264 265 266 268 269 272 274 277 277
236 235 236 236 236 236 237 237 237 237 238 238 239 241 242 243 243 244 245 245 245 246 247 250 250 251 253 254 255 256 256 258 260 261 263 265 267 269 270 273 274 276 277
235 235 235 236 236 236 236 237 238 238 239 240 240 242 242 242 243 245 245 245 245 245 247 249 250 252 254 255 255 257 257 257 258 260 263 265 267 268 270 272 273 275 276
234 234 233 234 236 236 236 237 238 239 239 241 241 242 243 244 244 244 244 244 245 244 245 247 249 251 252 253 254 255 257 257 258 260 263 265 266 267 270 271 272 273 274
234 234 233 234 235 236 236 237 237 239 240 241 242 243 244 244 243 244 244 244 245 245 244 246 248 250 251 252 253 255 256 256 258 260 262 264 265 266 269 271 272 273 273
233 233 233 233 234 235 237 237 237 239 240 241 242 243 244 244 245 244 244 244 244 245 245 246 247 249 251 252 253 254 256 256 257 259 261 263 264 265 268 270 271 272 272
233 233 233 234 234 235 235 236 237 239 240 241 242 243 244 243 243 243 243 244 244 245 246 246 247 248 249 251 252 254 255 256 258 258 258 260 263 265 267 269 270 271 272
233 233 233 234 234 235 236 236 237 239 241 242 243 242 243 243 243 244 244 244 245 246 246 246 247 247 249 250 252 253 255 256 257 258 259 261 263 265 267 268 269 270 272
233 233 233 234 235 236 236 238 239 240 240 241 242 243 244 244 244 244 244 245 246 247 247 246 247 248 249 250 251 252 254 256 257 258 259 261 263 265 267 268 270 271 271
233 233 233 235 236 237 237 238 238 239 240 240 241 242 243 244 245 245 244 245 247 248 247 247 249 250 250 250 251 252 254 256 257 259 260 261 263 264 266 268 269 270 271
Height
5850 5851 5852 5854 5855 5856 5857 5858 5859 5861 5862 5863 5864 5865 5866 5867 5867 5868 5869 5869 5870 5870 5871 5871 5872 5872 5872 5872 5873 5873 5873 5873 5873 5872 5872 5872 5871 5871 5871 5870 5870 5869 5868
5848 5849 5850 5852 5853 5854 5855 5857 5858 5859 5860 5861 5862 5863 5864 5865 5866 5866 5867 5868 5869 5869 5870 5871 5871 5871 5872 5872 5872 5872 5873 5872 5872 5872 5872 5872 5871 5871 5870 5870 5870 5869 5868
5845 5846 5848 5849 5850 5852 5853 5855 5856 5857 5858 5860 5861 5862 5863 5864 5864 5865 5866 5867 5867 5868 5869 5869 5870 5870 5871 5871 5871 5872 5872 5872 5872 5872 5871 5871 5871 5870 5870 5870 5869 5868 5868
5841 5843 5845 5846 5848 5849 5851 5852 5853 5855 5856 5857 5859 5860 5861 5862 5863 5864 5864 5865 5866 5867 5867 5868 5869 5869 5870 5870 5870 5871 5871 5871 5871 5871 5871 5871 5870 5870 5869 5869 5869 5868 5867
5838 5839 5841 5843 5844 5846 5848 5849 5851 5852 5854 5855 5857 5858 5859 5860 5861 5862 5863 5864 5864 5865 5866 5866 5867 5868 5868 5869 5869 5869 5870 5870 5870 5870 5870 5870 5869 5869 5868 5868 5868 5867 5867
5833 5835 5837 5839 5841 5843 5845 5846 5848 5849 5851 5852 5854 5855 5856 5858 5859 5860 5861 5862 5862 5863 5864 5865 5865 5866 5867 5867 5868 5868 5868 5868 5868 5868 5868 5868 5868 5868 5867 5867 5867 5866 5866
5829 5831 5833 5835 5837 5839 5841 5843 5844 5846 5848 5850 5851 5853 5854 5855 5856 5857 5858 5859 5860 5861 5862 5863 5864 5864 5865 5866 5866 5866 5866 5867 5867 5867 5867 5867 5867 5866 5866 5866 5865 5865 5864
5823 5826 5828 5830 5832 5835 5837 5839 5841 5843 5844 5846 5848 5850 5851 5852 5854 5855 5856 5857 5858 5859 5860 5860 5861 5862 5863 5863 5864 5864 5864 5865 5865 5865 5865 5865 5865 5864 5864 5864 5863 5863 5863
5818 5820 5823 5825 5827 5830 5832 5834 5836 5838 5840 5842 5844 5846 5848 5849 5850 5852 5853 5854 5855 5856 5857 5858 5859 5860 5860 5861 5861 5862 5862 5862 5862 5863 5863 5863 5862 5862 5862 5862 5861 5861 5861
5811 5814 5817 5820 5822 5825 5827 5829 5832 5834 5836 5838 5840 5842 5844 5845 5847 5848 5849 5851 5852 5853 5854 5855 5856 5857 5858 5858 5859 5859 5860 5860 5860 5860 5860 5860 5860 5860 5859 5859 5859 5859 5858
5805 5808 5810 5813 5816 5819 5822 5824 5827 5829 5831 5834 5836 5838 5840 5841 5843 5844 5846 5847 5848 5849 5850 5851 5853 5854 5854 5855 5856 5856 5857 5857 5857 5857 5858 5858 5857 5857 5857 5857 5856 5856 5856
5798 5801 5804 5807 5810 5812 5816 5818 5821 5824 5826 5829 5831 5833 5835 5837 5839 5840 5842 5843 5844 5845 5847 5848 5849 5850 5851 5852 5852 5853 5853 5854 5854 5854 5855 5855 5854 5854 5854 5854 5854 5853 5853
5790 5793 5796 5800 5803 5806 5809 5812 5815 5818 5821 5823 5825 5827 5830 5832 5834 5836 5837 5838 5840 5841 5842 5844 5845 5846 5847 5848 5849 5849 5850 5850 5851 5851 5851 5851 5851 5851 5851 5850 5850 5850 5849
5781 5785 5788 5792 5795 5798 5802 5805 5808 5812 5814 5817 5819 5822 5824 5826 5828 5830 5832 5833 5835 5836 5838 5839 5841 5842 5843 5844 5845 5845 5846 5846 5847 5847 5847 5848 5847 5847 5847 5847 5846 5846 5845
5772 5776 5780 5783 5787 5791 5794 5798 5801 5804 5807 5810 5813 5815 5818 5820 5822 5824 5826 5828 5829 5831 5833 5834 5836 5837 5838 5839 5840 5841 5842 5842 5843 5843 5843 5843 5843 5843 5843 5842 5842 5841 5841
5763 5767 5771 5775 5779 5782 5786 5790 5794 5797 5800 5803 5806 5808 5811 5813 5816 5818 5820 5822 5823 5825 5827 5829 5830 5832 5833 5834 5835 5836 5837 5838 5838 5838 5838 5839 5839 5839 5838 5838 5837 5837 5836
5754 5758 5762 5766 5770 5774 5778 5782 5785 5789 5792 5795 5798 5801 5804 5806 5808 5811 5813 5815 5817 5819 5821 5822 5824 5826 5827 5828 5830 5831 5832 5832 5833 5833 5833 5834 5834 5834 5834 5833 5833 5832 5831
5744 5749 5753 5757 5761 5765 5769 5773 5777 5780 5784 5787 5790 5793 5796 5799 5801 5804 5806 5808 5810 5812 5814 5816 5818 5820 5821 5822 5823 5825 5826 5827 5827 5828 5828 5828 5828 5828 5828 5828 5827 5827 5826
5734 5739 5743 5747 5751 5755 5759 5763 5767 5771 5774 5777 5781 5784 5788 5790 5793 5796 5798 5801 5803 5805 5807 5809 5811 5813 5814 5816 5817 5818 5819 5821 5821 5822 5822 5823 5823 5823 5823 5822 5822 5821 5821
5724 5729 5734 5738 5742 5746 5750 5754 5758 5762 5765 5768 5772 5775 5779 5782 5785 5787 5790 5793 5795 5797 5800 5802 5804 5806 5808 5809 5810 5811 5813 5814 5815 5816 5816 5817 5817 5817 5817 5816 5816 5816 5815
5714 5719 5724 5728 5732 5736 5740 5744 5748 5752 5755 5758 5762 5765 5769 5772 5775 5778 5781 5784 5787 5789 5792 5794 5796 5798 5800 5802 5803 5805 5806 5807 5808 5809 5810 5810 5810 5810 5810 5810 5810 5809 5809
5704 5709 5713 5718 5722 5726 5730 5735 5739 5742 5746 5749 5752 5756 5759 5762 5765 5768 5771 5775 5778 5781 5783 5786 5788 5790 5792 5794 5796 5797 5798 5800 5801 5802 5803 5803 5804 5804 5804 5804 5803 5803 5803
5693 5698 5703 5707 5712 5716 5720 5724 5728 5732 5736 5739 5743 5746 5749 5753 5756 5759 5762 5765 5768 5771 5774 5777 5779 5782 5784 5786 5788 5790 5791 5792 5793 5795 5795 5796 5796 5797 5797 5797 5796 5796 5796
5683 5688 5693 5697 5702 5706 5710 5714 5718 5722 5726 5729 5733 5736 5739 5743 5746 5749 5753 5756 5759 5762 5765 5768 5770 5773 5775 5777 5779 5781 5783 5784 5786 5787 5788 5788 5789 5789 5789 5789 5789 5789 5789
5673 5678 5683 5687 5691 5695 5700 5703 5707 5712 5715 5719 5722 5726 5730 5733 5736 5740 5743 5746 5749 5752 5755 5758 5761 5763 5766 5768 5770 5772 5774 5775 5777 5779 5780 5781 5781 5782 5782 5782 5782 5781 5781
5662 5667 5672 5677 5681 5685 5689 5693 5697 5701 5705 5708 5712 5716 5719 5723 5726 5729 5732 5736 5739 5742 5745 5748 5751 5753 5756 5759 5761 5763 5765 5767 5768 5770 5771 5772 5773 5774 5774 5774 5773 5773 5773